Flag for Angola Weather past 2 weeks in Luanda, Angola

Now
75 °F

Passing clouds.


Feels Like: 74 °F
Forecast: 76 / 83 °F
Wind: 6 mph from East

Location: Luanda Airport

Current Time: Mar 29, 2015 at 8:02:23 AM

Latest Report: Mar 29, 2015 at 6:00 AM


Visibility: N/A

Pressure: 29.89 "Hg

Humidity: 94%

Dew point: 73 °F

Location of LuandaLocation

Historic Weather in Luanda — Graph

°F

Luanda temperature yesterday

Maximum temperature yesterday: 81 °F (at 12:00 AM)
Minimum temperature yesterday: 75 °F (at 3:00 AM)
Average temperature yesterday: 77 °F

Past Weeks' High & Low Weather Summary

 TemperatureHumidityPressure
High91 °F (Mar 14, 2:00 PM)100% (Mar 26, 5:00 AM)30.07 "Hg (Mar 26, 5:00 AM)
Low73 °F (Mar 21, 10:00 PM)42% (Mar 27, 5:00 PM)29.65 "Hg (Mar 14, 4:00 PM)
Average81 °F83%29.82 "Hg
* Reported Mar 14 6:00 AM — Mar 29 6:00 AM, Luanda, Weather by CustomWeather, © 2015

Note: Actual official high and low records may vary slightly from our data, if they occured in-between our weather recording intervals... More about our weather records

Advertising

Luanda weather history for previous 24 hours

 ConditionsComfort  
Time TempWeatherWind HumidityBarometerVisibility
6:00 AM
Sun, Mar 29
75 °FPassing clouds.6 mph94%29.89 "HgN/A
5:00 AM75 °FPassing clouds.5 mph94%29.89 "HgN/A
12:00 AM77 °FPassing clouds.2 mph89%29.92 "HgN/A
9:00 PM
Sat, Mar 28
77 °FPassing clouds.6 mph89%29.92 "HgN/A
8:00 PM75 °FPartly cloudy.7 mph94%29.89 "Hg5 mi
7:00 PM75 °FHeavy rain. Partly cloudy.14 mph94%29.92 "Hg4 mi
6:00 PM75 °FRain. Broken clouds.7 mph94%29.89 "Hg3 mi
5:00 PM75 °FDrizzle. Broken clouds.12 mph94%29.89 "Hg5 mi
4:00 PM77 °FHeavy rain. Broken clouds.14 mph89%29.83 "Hg2 mi
3:00 PM79 °FBroken clouds.7 mph84%29.89 "HgN/A
2:00 PM79 °FBroken clouds.6 mph89%29.89 "HgN/A
1:00 PM77 °FBroken clouds.7 mph89%29.92 "HgN/A
12:00 PM77 °FBroken clouds.9 mph89%29.95 "HgN/A
11:00 AM77 °FDrizzle. Broken clouds.9 mph94%29.95 "HgN/A
10:00 AM77 °FBroken clouds.7 mph94%29.98 "HgN/A
9:00 AM75 °FBroken clouds.9 mph94%29.98 "HgN/A
8:00 AM75 °FDrizzle. Broken clouds.9 mph94%29.92 "HgN/A
Weather by CustomWeather, © 2015

See weather overviewHow to use our weather pages